Kelso-Longview, WA
on Sunday, January 13, 2013

Sunday
Previous Day Next Day
Daily Summary
 ActualAverage (KSPB)Record (KSPB)
Temperature
Mean Temperature °F °F  
Max Temperature 33°F °F 56°F (2011)
Min Temperature 19°F °F 20°F (2013)
Degree Days
Heating Degree Days 39    
Month to date heating degree days  
Since 1 July heating degree days  
Cooling Degree Days 0    
Month to date cooling degree days  
Year to date cooling degree days  
Moisture
Dew Point 22°F   
Average Humidity 83    
Maximum Humidity 93    
Minimum Humidity 70    
Precipitation
Precipitation 0.00 in in 0.84 in (2011)
Month to date precipitation  
Year to date precipitation  
Wind
Wind Speed 2 mph   
Max Wind Speed 10 mph   
Max Gust Speed mph   
Visibility 10 miles   
Events     

Key: T is trace of precipitation, MM is missing value
Source: NWS Daily Summary
Time(PST)TemperatureDew PointHumidity Pressure Visibility Wind DirectionWind SpeedGust SpeedPrecipitationEvents Conditions
12:15 AM 24.8°F 21.2°F 86% 30.44 in 10.0 miles Calm Calm - N/A   Clear
12:35 AM 24.8°F 21.2°F 86% 30.42 in 10.0 miles Calm Calm - N/A   Clear
12:55 AM 24.8°F 19.4°F 80% 30.43 in 10.0 miles Calm Calm - N/A   Clear
1:15 AM 24.8°F 21.2°F 86% 30.43 in 10.0 miles Calm Calm - N/A   Clear
1:35 AM 23.0°F 19.4°F 86% 30.44 in 9.0 miles Calm Calm - N/A   Clear
1:55 AM 23.0°F 19.4°F 86% 30.44 in 10.0 miles Calm Calm - N/A   Clear
2:15 AM 23.0°F 19.4°F 86% 30.44 in 10.0 miles Calm Calm - N/A   Clear
2:35 AM 23.0°F 19.4°F 86% 30.45 in 10.0 miles Calm Calm - N/A   Clear
2:55 AM 23.0°F 19.4°F 86% 30.45 in 10.0 miles Calm Calm - N/A   Clear
3:15 AM 21.2°F 17.6°F 86% 30.45 in 10.0 miles Calm Calm - N/A   Clear
3:35 AM 23.0°F 19.4°F 86% 30.44 in 10.0 miles Calm Calm - N/A   Clear
4:15 AM 21.2°F 17.6°F 86% 30.43 in 10.0 miles Calm Calm - N/A   Clear
4:35 AM 21.2°F 17.6°F 86% 30.44 in 10.0 miles Calm Calm - N/A   Clear
4:55 AM 21.2°F 19.4°F 93% 30.43 in 10.0 miles Calm Calm - N/A   Clear
5:15 AM 21.2°F 17.6°F 86% 30.44 in 10.0 miles Calm Calm - N/A   Clear
5:35 AM 21.2°F 17.6°F 86% 30.44 in 10.0 miles Calm Calm - N/A   Clear
5:55 AM 21.2°F 17.6°F 86% 30.44 in 10.0 miles Calm Calm - N/A   Clear
6:15 AM 21.2°F 17.6°F 86% 30.45 in 10.0 miles Calm Calm - N/A   Clear
6:35 AM 19.4°F 15.8°F 86% 30.46 in 10.0 miles Calm Calm - N/A   Clear
6:55 AM 19.4°F 17.6°F 93% 30.47 in 10.0 miles Calm Calm - N/A   Clear
7:15 AM 19.4°F 15.8°F 86% 30.47 in 10.0 miles Calm Calm - N/A   Clear
7:35 AM 19.4°F 17.6°F 93% 30.48 in 10.0 miles Calm Calm - N/A   Clear
7:55 AM 21.2°F 17.6°F 86% 30.48 in 10.0 miles Calm Calm - N/A   Clear
8:15 AM 21.2°F 17.6°F 86% 30.49 in 10.0 miles Calm Calm - N/A   Partly Cloudy
8:35 AM 21.2°F 17.6°F 86% 30.49 in 10.0 miles Calm Calm - N/A   Mostly Cloudy
8:55 AM 21.2°F 17.6°F 86% 30.49 in 10.0 miles Calm Calm - N/A   Mostly Cloudy
9:15 AM 24.8°F 21.2°F 86% 30.49 in 10.0 miles Calm Calm - N/A   Mostly Cloudy
9:35 AM 26.6°F 23.0°F 86% 30.49 in 10.0 miles SE 4.6 mph - N/A   Mostly Cloudy
9:55 AM 28.4°F 24.8°F 86% 30.49 in 10.0 miles SE 5.8 mph - N/A   Scattered Clouds
10:15 AM 28.4°F 24.8°F 86% 30.49 in 10.0 miles SE 6.9 mph - N/A   Partly Cloudy
10:35 AM 28.4°F 24.8°F 86% 30.49 in 10.0 miles SSE 6.9 mph - N/A   Mostly Cloudy
10:55 AM 30.2°F 24.8°F 80% 30.49 in 10.0 miles SE 6.9 mph - N/A   Overcast
11:15 AM 30.2°F 24.8°F 80% 30.50 in 10.0 miles SE 5.8 mph - N/A   Mostly Cloudy
11:35 AM 30.2°F 24.8°F 80% 30.49 in 10.0 miles SSE 8.1 mph - N/A   Mostly Cloudy
11:55 AM 30.2°F 24.8°F 80% 30.48 in 10.0 miles SE 8.1 mph - N/A   Partly Cloudy
12:15 PM 30.2°F 24.8°F 80% 30.47 in 10.0 miles SSE 5.8 mph - N/A   Clear
12:35 PM 30.2°F 24.8°F 80% 30.46 in 10.0 miles SSE 6.9 mph - N/A   Clear
12:55 PM 30.2°F 24.8°F 80% 30.47 in 10.0 miles SSE 10.4 mph - N/A   Clear
1:15 PM 32.0°F 24.8°F 75% 30.47 in 10.0 miles SSE 8.1 mph - N/A   Clear
1:35 PM 32.0°F 24.8°F 75% 30.46 in 10.0 miles South 9.2 mph - N/A   Clear
1:55 PM 32.0°F 24.8°F 75% 30.46 in 10.0 miles South 8.1 mph - N/A   Clear
2:15 PM 33.8°F 24.8°F 70% 30.46 in 10.0 miles SSE 6.9 mph - N/A   Clear
2:35 PM 32.0°F 24.8°F 75% 30.47 in 10.0 miles SE 5.8 mph - N/A   Clear
2:55 PM 32.0°F 24.8°F 75% 30.47 in 10.0 miles SSE 4.6 mph - N/A   Clear
3:15 PM 33.8°F 24.8°F 70% 30.47 in 10.0 miles SE 6.9 mph - N/A   Clear
3:35 PM 32.0°F 24.8°F 75% 30.46 in 10.0 miles SSE 6.9 mph - N/A   Clear
3:55 PM 32.0°F 24.8°F 75% 30.46 in 10.0 miles SE 4.6 mph - N/A   Clear
4:15 PM 32.0°F 24.8°F 75% 30.46 in 10.0 miles SE 4.6 mph - N/A   Clear
4:35 PM 32.0°F 24.8°F 75% 30.46 in 10.0 miles SE 5.8 mph - N/A   Clear
4:55 PM 30.2°F 24.8°F 80% 30.46 in 10.0 miles SE 5.8 mph - N/A   Clear
5:15 PM 30.2°F 24.8°F 80% 30.47 in 10.0 miles SE 8.1 mph - N/A   Clear
5:35 PM 30.2°F 24.8°F 80% 30.47 in 10.0 miles SE 4.6 mph - N/A   Clear
5:55 PM 30.2°F 24.8°F 80% 30.47 in 10.0 miles SE 5.8 mph - N/A   Clear
6:15 PM 30.2°F 24.8°F 80% 30.49 in 10.0 miles SE 5.8 mph - N/A   Clear
6:35 PM 28.4°F 24.8°F 86% 30.48 in 10.0 miles SE 4.6 mph - N/A   Clear
6:55 PM 28.4°F 24.8°F 86% 30.49 in 10.0 miles SE 4.6 mph - N/A   Clear
7:15 PM 28.4°F 24.8°F 86% 30.49 in 10.0 miles SE 5.8 mph - N/A   Clear
7:35 PM 28.4°F 24.8°F 86% 30.48 in 10.0 miles SE 5.8 mph - N/A   Clear
7:55 PM 28.4°F 24.8°F 86% 30.48 in 10.0 miles SE 4.6 mph - N/A   Clear
8:15 PM 28.4°F 24.8°F 86% 30.48 in 8.0 miles SE 4.6 mph - N/A   Mostly Cloudy
8:35 PM 28.4°F 24.8°F 86% 30.49 in 8.0 miles SE 3.5 mph - N/A   Overcast
8:55 PM 28.4°F 24.8°F 86% 30.50 in 7.0 miles SSE 4.6 mph - N/A   Overcast
9:15 PM 28.4°F 24.8°F 86% 30.50 in 7.0 miles SE 5.8 mph - N/A   Overcast
9:35 PM 28.4°F 24.8°F 86% 30.50 in 7.0 miles SE 5.8 mph - N/A   Overcast
9:55 PM 28.4°F 24.8°F 86% 30.49 in 7.0 miles SE 6.9 mph - N/A   Overcast
10:15 PM 28.4°F 24.8°F 86% 30.49 in 6.0 miles SE 8.1 mph - N/A   Overcast
10:35 PM 28.4°F 24.8°F 86% 30.50 in 6.0 miles SE 4.6 mph - N/A   Overcast
11:15 PM 28.4°F 24.8°F 86% 30.51 in 7.0 miles SSE 6.9 mph - N/A   Overcast
11:35 PM 28.4°F 24.8°F 86% 30.51 in 10.0 miles SE 4.6 mph - N/A   Overcast
11:55 PM 28.4°F 24.8°F 86% 30.51 in 10.0 miles SE 5.8 mph - N/A   Overcast
Moon Phase
Jan. 13 Jan. 18 Jan. 26 Feb. 03 Feb. 10
Sunrise:07:50 AM (PST) Moon Rise:08:42 AM (PST)1/13
Sunset:04:50 PM (PST) Moon Set:07:46 PM (PST)1/13

Copyright © 2014 The Weather Underground, Inc.